STARLINK-11629, 63104

Orbit data source: Space-Track

STARLINK-11629, 63104 is a payload satellite owned by SpaceX/Seattle (US) in LEO that was launched on Thu, 27 Feb 2025 UTC via an FALCON 9 launch vehicle from the Air Force Eastern Test Range (AFETR). Payload-class satellites include a variety of spacecraft equipped with specific instruments for various scientific and technological missions. These include communications satellites like Starlink; space stations such as the ISS; scientific satellites like the Hubble; Earth observation satellites from companies like Planet Labs, Umbra, and HawkEye 360; GPS; miniature CubeSats for education and research; and military/defense satellites.

Loading next visibility...
Identifier
63104, 2025-039A
Orbit
LEO
Last TLE update
8 hours ago
Origin
Manufacturer
SpaceX/Seattle
Mission
Operational Commercial Communications
Bus & Motor
STARLINK V2M, Unknown motor
Mass
730 kg wet, ~700 kg dry
Launch date (UTC)
2025-02-27 (4 months ago)
Launch vehicle
FALCON 9
Launch site
Air Force Eastern Test Range (AFETR)
Object type
Payload
Rocket body
Debris
Shape & HBR
Box + 2 Pan, 29 m
Radar Cross Section
36.964 m², Large (>1 m²)

Expand to show TLE details & history

TLE from 8 hours ago
0 STARLINK-11629
1 63104U 25039A   25182.06298414  .00262698  00000-0  19818-2 0  9997
2 63104  42.9989 313.3458 0000937 316.5499  43.5294 15.70898942 20765
Epoch: 2025-07-01T01:30Z
TLE epoch observation values (Epoch: 2025-07-01T01:30:41.829Z)
Latitude
-0.00008°
Longitude
11.30761°
Altitude
355.64 km
Speed
7.698 km/s
True Right ascension
20h 53m 22s
True Declination
0° 00' 00"
Sunlit
Object was in full shadow at epoch
Visualization orbit readout
Latitude
22.88573°
Longitude
162.48234°
Altitude
356.041 km
Speed
7.699 km/s
Apparent Right ascension
08h 02m 01s
Apparent Declination
-7° 54' 44"
Sunlit
Object is in daylight
Visualization observer readout
Local Sidereal Time
21:23:44
Azimuth
35.2° NE
Elevation
-53.154°
Doppler factor
1
Orbital elements
Apogee altitude
358.94 km
Perigee altitude
357.677 km
Semi-major axis
6,736.445 km
Eccentricity
0.00009
Inclination
42.9989°
RAAN
313.3458°
Arg. of periapsis
316.5499°
True anomaly
Unknown
Mean anomaly
43.5294°
Eccentric anomaly
Unknown
Mean motion
3.92552 °/min
Orbital period
91.71 mins
BSTAR
0.0019818
Loading maneuver chart data...
Loading SW <> Apogee altitude chart data...
Loading historical data...
Loading historical data...
Loading historical data...
Loading historical data...
Loading historical data...
Loading historical data...
Loading historical data...

STARLINK-11629 Visibility forecast

Observer location: undefined°, undefined°

Span
Click to sort rows by Start time (UTC) header in descending order
Start Az.
Max El. time (UTC)
Max El. Az.
Max El.
End time (UTC)
End Az.
5 mins2025-07-01 12:24:23.795Z223.176° SW2025-07-01 12:27:23.795Z132.89° SE31.082°2025-07-01 12:29:23.795Z85.416° E
4 mins2025-07-01 14:01:23.795Z278.089° WNW2025-07-01 14:03:23.795Z17.377° NNE37.587°2025-07-01 14:05:23.795Z65.914° ENE
4 mins2025-07-01 17:14:23.795Z267.748° W2025-07-01 17:15:23.795Z218.492° SW38.953°2025-07-01 17:18:23.795Z125.173° SE
|